Miscellaneous Local Product
Issued by NWS Hastings, NE

Home | Current Version | Previous Version | Graphics & Text | Print | Product List | Glossary On
Versions: 1 2 3 4 5 6 7 8 9 10 11 12 13 14 15 16 17 18 19 20 21 22 23 24 25 26 27 28 29 30 31 32 33 34 35 36 37 38 39 40 41 42 43 44 45 46 47 48 49 50
720
AXUS43 KGID 072002
MISGRI

GID CWA HOURLY WEATHER ROUNDUP
NATIONAL WEATHER SERVICE HASTINGS NE
200 PM CST SUN FEB 07 2016

NOTE: "FAIR" INDICATES FEW OR NO CLOUDS BELOW 12,000 FEET WITH NO
SIGNIFICANT WEATHER AND/OR OBSTRUCTIONS TO VISIBILITY.

...SOUTH CENTRAL NEBRASKA...

CITY           SKY/WX    TMP DP  RH WIND       PRES   REMARKS
GRAND ISLAND   CLOUDY    41  20  43 NW25G41   30.05F
HASTINGS       MOSUNNY   41  24  51 W21G31    30.06F
ORD            PTSUNNY   40  18  41 NW38G52   30.02F WCI  27
YORK           PTSUNNY   41  21  45 NW35      30.02F
AURORA         MOSUNNY   41  20  43 NW28G38   30.04F
LEXINGTON      SUNNY     40  21  45 NW31G43   30.13F WCI  29
HOLDREGE       SUNNY     40  20  45 NW18G35   30.13F WCI  31
HEBRON         SUNNY     42  26  53 W16       30.08F

...NEBRASKA PANHANDLE...

CITY           SKY/WX    TMP DP  RH WIND       PRES   REMARKS
CHADRON        SUNNY     39  14  36 NW29G44   30.24F WCI  27
ALLIANCE       SUNNY     33  16  49 NW33G43   30.22F WCI  18
SCOTTSBLUFF    CLOUDY    34  14  43 NW31G41   30.29F WCI  20
SIDNEY         PTSUNNY   33  18  53 NW31G40   30.26F WCI  19

...WESTERN AND NORTH CENTRAL NEBRASKA...

CITY           SKY/WX    TMP DP  RH WIND       PRES   REMARKS
VALENTINE      PTSUNNY   36  16  44 NW28G48   30.05S WCI  23
AINSWORTH      CLOUDY    38  15  39 NW39G52   30.04F WCI  24
ONEILL         LGT SNOW  34  29  83 NW23G35   30.00F WCI  22
BROKEN BOW     PTSUNNY   40  14  34 NW43G56   30.06F WCI  26
IMPERIAL       SUNNY     38  21  50 NW22G33   30.24F WCI  27
NORTH PLATTE   SUNNY     39  19  44 NW26G39   30.15F WCI  28
MCCOOK         MOSUNNY   40  23  50 NW24G35   30.20F WCI  29

...EASTERN NEBRASKA...

CITY           SKY/WX    TMP DP  RH WIND       PRES   REMARKS
NORFOLK        PTSUNNY   39  25  57 NW32G47   29.94S WCI  27
SO SIOUX CITY  LGT SNOW  37  29  72 NW26G40   29.88F WCI  25
TEKAMAH        CLOUDY    41  25  53 NW22G30   29.92F
COLUMBUS       PTSUNNY   39  19  45 NW23G33   29.99S WCI  29
ALBION         CLOUDY    39  21  48 NW28G37   29.99S WCI  28
OMAHA EPPLEY   MOSUNNY   44  24  45 NW22G39   29.94F
OFFUTT AFB     SUNNY     44  24  46 W30G37    29.94F
MILLARD        MOSUNNY   45  24  43 W30G38    29.96F
LINCOLN        MOSUNNY   44  24  45 W20G28    30.00F
NEBRASKA CITY  SUNNY     45  27  49 W21G32    29.98F
BEATRICE       SUNNY     44  29  55 W21G28    30.03F
FALLS CITY     SUNNY     50  23  34 W28G35    30.01F

...NORTHERN KANSAS...

CITY           SKY/WX    TMP DP  RH WIND       PRES   REMARKS
GOODLAND       MOSUNNY   37  21  52 NW22G32   30.27F WCI  26
HILL CITY      CLOUDY    41  27  57 NW18G25   30.22F
NORTON         MOCLDY    39  21  48 W23G29    30.18F WCI  29
PHILLIPSBURG   MOSUNNY   43  27  52 W21G28    30.18F
BELOIT         SUNNY     46  27  46 W17G25    30.15F
HAYS           PTSUNNY   45  25  45 W18       30.21F
RUSSELL        CLOUDY    44  29  55 NW16      30.19F
CONCORDIA      SUNNY     47  25  42 NW18G32   30.11F
SALINA         CLOUDY    54  19  25 NW25G36   30.14F
TOPEKA         MOSUNNY   51  22  31 NW26G36   30.06F



USA.gov is the U.S. government's official web portal to all federal, state and local government web resources and services.